TimeCST,TemperatureF,Dew PointF,Humidity,Sea Level PressureIn,VisibilityMPH,Wind Direction,Wind SpeedMPH,Gust SpeedMPH,PrecipitationIn,Events,Conditions,WindDirDegrees,DateUTC
12:45 AM,39.2,32.0,75,30.35,7.0,Calm,Calm,-,N/A,,Clear,0,2012-12-10 06:45:00
1:45 AM,37.4,30.2,75,30.35,7.0,Calm,Calm,-,N/A,,Clear,0,2012-12-10 07:45:00
2:45 AM,35.6,32.0,87,29.90,7.0,Calm,Calm,-,N/A,,Clear,0,2012-12-10 08:45:00
3:45 AM,33.8,30.2,87,30.32,7.0,Calm,Calm,-,N/A,,Scattered Clouds,0,2012-12-10 09:45:00
4:45 AM,32.0,28.4,87,30.32,7.0,East,3.5,-,N/A,,Scattered Clouds,100,2012-12-10 10:45:00
5:45 AM,33.8,30.2,87,29.95,7.0,South,3.5,-,N/A,,Scattered Clouds,180,2012-12-10 11:45:00
6:45 AM,32.0,28.4,87,30.33,2.0,Calm,Calm,-,N/A,,Scattered Clouds,0,2012-12-10 12:45:00
7:45 AM,32.0,28.4,87,30.36,2.0,Calm,Calm,-,N/A,,Scattered Clouds,0,2012-12-10 13:45:00
8:45 AM,41.0,37.4,87,30.04,3.0,SSE,3.5,-,N/A,,Scattered Clouds,150,2012-12-10 14:45:00
9:45 AM,53.6,39.2,58,30.37,7.0,South,4.6,-,N/A,,Mostly Cloudy,170,2012-12-10 15:45:00
10:45 AM,60.8,35.6,39,30.35,7.0,Calm,Calm,-,N/A,,Mostly Cloudy,0,2012-12-10 16:45:00
11:45 AM,66.2,50.0,56,29.85,7.0,South,3.5,-,N/A,,Mostly Cloudy,170,2012-12-10 17:45:00
12:45 PM,68.0,28.4,23,30.28,7.0,WSW,9.2,-,N/A,,Mostly Cloudy,240,2012-12-10 18:45:00
1:45 PM,69.8,28.4,21,30.25,7.0,WNW,4.6,-,N/A,,Mostly Cloudy,290,2012-12-10 19:45:00
2:45 PM,71.6,26.6,19,29.73,7.0,Calm,Calm,-,N/A,,Mostly Cloudy,0,2012-12-10 20:45:00
3:45 PM,66.2,39.2,37,30.21,7.0,South,13.8,-,N/A,,Mostly Cloudy,180,2012-12-10 21:45:00
4:45 PM,64.4,42.8,45,30.23,7.0,SSE,11.5,-,N/A,,Mostly Cloudy,160,2012-12-10 22:45:00
5:45 PM,60.8,42.8,52,29.86,7.0,South,10.4,-,N/A,,Mostly Cloudy,170,2012-12-10 23:45:00
6:45 PM,55.4,44.6,67,30.26,7.0,SSE,8.1,-,N/A,,Mostly Cloudy,150,2012-12-11 00:45:00
7:45 PM,55.4,42.8,63,30.29,7.0,ESE,3.5,-,N/A,,Overcast,120,2012-12-11 01:45:00
8:45 PM,53.6,42.8,67,29.91,7.0,Calm,Calm,-,N/A,,Overcast,0,2012-12-11 02:45:00
9:45 PM,51.8,41.0,67,30.32,7.0,NNW,4.6,-,N/A,,Mostly Cloudy,330,2012-12-11 03:45:00
10:45 PM,50.0,41.0,71,30.31,6.0,NNW,4.6,-,N/A,,Mostly Cloudy,340,2012-12-11 04:45:00
11:45 PM,48.2,41.0,76,29.77,5.0,Calm,Calm,-,N/A,,Mostly Cloudy,0,2012-12-11 05:45:00